TimeMST,TemperatureF,Dew PointF,Humidity,Sea Level PressureIn,VisibilityMPH,Wind Direction,Wind SpeedMPH,Gust SpeedMPH,PrecipitationIn,Events,Conditions,WindDirDegrees,DateUTC
12:53 AM,21.0,17.1,85,30.56,10.0,Calm,Calm,-,N/A,,Clear,0,2014-01-24 07:53:00
1:53 AM,17.1,14.0,88,30.58,10.0,SSW,3.5,-,N/A,,Clear,200,2014-01-24 08:53:00
2:53 AM,17.1,14.0,88,30.59,10.0,Calm,Calm,-,N/A,,Clear,0,2014-01-24 09:53:00
3:53 AM,16.0,12.9,88,30.59,10.0,Calm,Calm,-,N/A,,Clear,0,2014-01-24 10:53:00
4:53 AM,16.0,12.0,84,30.58,10.0,Calm,Calm,-,N/A,,Clear,0,2014-01-24 11:53:00
5:53 AM,14.0,10.9,88,30.61,10.0,Calm,Calm,-,N/A,,Clear,0,2014-01-24 12:53:00
6:53 AM,14.0,10.0,84,30.63,10.0,SSE,3.5,-,N/A,,Clear,150,2014-01-24 13:53:00
7:53 AM,12.0,8.1,84,30.64,10.0,Calm,Calm,-,N/A,,Clear,0,2014-01-24 14:53:00
8:53 AM,14.0,9.0,80,30.64,10.0,Calm,Calm,-,N/A,,Clear,0,2014-01-24 15:53:00
9:53 AM,19.9,15.1,81,30.63,10.0,Calm,Calm,-,N/A,,Clear,0,2014-01-24 16:53:00
10:53 AM,25.0,17.1,72,30.60,10.0,Calm,Calm,-,N/A,,Clear,0,2014-01-24 17:53:00
11:53 AM,30.0,18.0,61,30.56,10.0,Calm,Calm,-,N/A,,Clear,0,2014-01-24 18:53:00
12:53 PM,37.0,19.0,48,30.52,10.0,Calm,Calm,-,N/A,,Clear,0,2014-01-24 19:53:00
1:53 PM,41.0,19.0,41,30.50,10.0,NW,5.8,-,N/A,,Clear,320,2014-01-24 20:53:00
2:53 PM,42.1,18.0,38,30.47,10.0,NW,6.9,-,N/A,,Clear,310,2014-01-24 21:53:00
3:53 PM,42.1,19.0,40,30.46,10.0,NW,5.8,-,N/A,,Clear,310,2014-01-24 22:53:00
4:53 PM,39.0,19.9,46,30.46,10.0,North,5.8,-,N/A,,Clear,360,2014-01-24 23:53:00
5:53 PM,34.0,19.9,56,30.50,10.0,North,5.8,-,N/A,,Clear,360,2014-01-25 00:53:00
6:53 PM,30.0,19.9,66,30.53,10.0,NNW,6.9,-,N/A,,Clear,340,2014-01-25 01:53:00
7:53 PM,28.9,19.9,69,30.54,10.0,NNE,5.8,-,N/A,,Clear,20,2014-01-25 02:53:00
8:53 PM,28.0,19.0,69,30.55,10.0,Calm,Calm,-,N/A,,Clear,0,2014-01-25 03:53:00
9:53 PM,21.9,18.0,85,30.55,10.0,South,4.6,-,N/A,,Clear,180,2014-01-25 04:53:00
10:53 PM,23.0,17.1,78,30.53,10.0,Calm,Calm,-,N/A,,Clear,0,2014-01-25 05:53:00
11:53 PM,19.9,16.0,85,30.53,10.0,Calm,Calm,-,N/A,,Clear,0,2014-01-25 06:53:00